Regional Weather Roundup
Issued by NWS

Home | Current Version | Previous Version | Text Only | Print | Product List | Glossary Off
Versions: 1 2 3 4 5 6 7 8 9 10 11 12 13 14 15 16 17 18 19 20 21 22 23 24 25 26 27 28 29 30 31 32 33 34 35 36 37 38 39 40 41 42 43 44 45 46 47 48 49 50

516
ASUS44 KLIX 210901
RWRLA
LOUISIANA WEATHER ROUNDUP
NATIONAL WEATHER SERVICE NEW ORLEANS LA
400 AM CDT MON APR 21 2014

NOTE: "FAIR" INDICATES FEW OR NO CLOUDS BELOW 12,000 FEET WITH NO
      SIGNIFICANT WEATHER AND/OR OBSTRUCTIONS TO VISIBILITY.
      SKY/WX - SKY CONDITION AND SIGNIFICANT WEATHER.
      TMP - AIR TEMPERATURE.    DP   - DEWPOINT TEMPERATURE.
      RH  - RELATIVE HUMIDITY.  PRES - PRESSURE.
      HX  - HEAT INDEX.         WCI  - WIND CHILL INDEX.

*  THESE STATIONS ARE NOT NWS OR FAA STATIONS AND ARE NOT UNDER
   NWS QUALITY CONTROL.

LAZ040-048-061>063-065-066-069-211000-
SOUTHEAST LOUISIANA

CITY           SKY/WX    TMP DP  RH WIND       PRES   REMARKS
N.O. AUDUBON   NOT AVBL
N.O. INTL ARPT PTCLDY    61  58  90 SE6       30.13S
N.O. LAKEFRONT CLEAR     61  58  90 S5        30.14S
N.O. DOWNTOWN* FAIR      64  55  72 S3        30.14S
SLIDELL        CLEAR     55  53  93 CALM      30.13S
BATON ROUGE    CLEAR     61  57  87 CALM      30.12S
BOOTHVILLE     CLEAR     59  57  93 CALM      30.12F
BELLE CHASSE   CLOUDY   N/A N/A N/A CALM      30.13S
BOGALUSA*        N/A     58  55  91 CALM      30.15S
GALLIANO*      SUNNY     60  57  91 CALM      30.12S
NEW ROADS*     NOT AVBL
GONZALES*      PTSUNNY   64  63  98 SE3       30.12S
HAMMOND*       NOT AVBL
HOUMA*           N/A     59  56  91 CALM      30.12S
PORT FOURCHON* SUNNY     64  59  82 E5        30.13F

$$

LAZ041-044-053-054-211000-
SOUTHWEST LOUISIANA

CITY           SKY/WX    TMP DP  RH WIND       PRES   REMARKS
LAKE CHARLES   CLEAR     57  56  96 CALM      30.09S FOG
LAFAYETTE      CLEAR     61  61 100 CALM      30.11R FOG
PATTERSON      PTCLDY    63  63 100 SE3       30.14R
SALT POINT       N/A     66  64  93 SE3       30.11S
NEW IBERIA     CLEAR     61  58  90 E7        30.11S
CHENAULT AIRPK NOT AVBL

$$

LAZ027-028-211000-
CENTRAL LOUISIANA

CITY           SKY/WX    TMP DP  RH WIND       PRES   REMARKS
FORT POLK      CLOUDY    62  54  74 VRB3      30.09S
ALEXANDRIA INT CLEAR     60  56  86 CALM      30.07F
ALEXANDRIA     CLEAR     56  53  90 CALM      30.09S FOG

$$

LAZ001-002-211000-
NORTHWEST LOUISIANA

CITY           SKY/WX    TMP DP  RH WIND       PRES   REMARKS
SHREVEPORT     MOCLDY    65  54  67 SW6       30.05F
BARKSDALE AFB  CLOUDY    67  54  63 SW6       30.06S
DTN SHREVEPORT PTCLDY    65  54  67 W6        30.06S

$$

LAZ014-016-211000-
NORTHEAST LOUISIANA

CITY           SKY/WX    TMP DP  RH WIND       PRES   REMARKS
MONROE         MOCLDY    58  55  90 S3        30.08S
TALLULAH       CLEAR     60  54  80 SE7       30.09R

$$




USA.gov is the U.S. government's official web portal to all federal, state and local government web resources and services.